Volver al catálogo

CZ-6A R/B

ActivoPO
NORAD 60397·ROCKET BODY·🇨🇳 China

Lanzado Aug 6, 2024 desde Taiyuan Satellite Launch Center

Loading…

Próximos Pases (próximas 24 horas)

TLE

ActualizadoSource: Space-Track

Época: Sep 14, 2026, 14:00 UTC

1 60397U 24140U   26257.58363360  .00000067  00000-0  24741-4 0  9997
2 60397  88.9939 264.4708 0038709 261.1398  98.5408 14.19897517108871

Sigue CZ-6A R/B en tiempo real con AllMySat

Download on the App Store